Tracking 19192 objects as of 22-Jun-2018
HD Live streaming from Space Station
objects crossing your sky now

FENGYUN 1C DEB

Track FENGYUN 1C DEB now!
10-day predictions


NORAD ID: 36681
Int'l Code: 1999-025DZB
Perigee: 847.4 km
Apogee: 917.3 km
Inclination: 98.9 °
Period: 102.5 minutes
Semi major axis: 7253 km
RCS: 0.0116 m2 (small)
Launch date: May 10, 1999
Source: People's Republic of China (PRC)
Launch site: Taiyaun Space Center, China (TSC)

Note: This is SATELLITE DEBRIS
aabbcc
Your satellite tracking list
Your tracking list is empty




NASA's NSSDC Master Catalog

Two Line Element Set (TLE):
1 36681U 99025DZB 18169.32836982 +.00000238 +00000-0 +17160-3 0  9996
2 36681 098.8952 215.2241 0048189 123.3426 237.2368 14.05384484343120
Source of the keplerian elements: AFSPC